[[{"header":{"parameterUnit":"m.s-1","parameterCategory":1,"la1":30.2991,"la2":30.254,"lo1":-89.0895,"lo2":-89.0444,"dy":0.0017,"dx":0.0017,"nx":28,"ny":28,"refTime":"2025-05-30T09:00:00:Z","depth":0,"parameterNumber":2,"parameterNumberName":"U-component_of_WINDS"},"data":[0,0,0,0,0,0,0,0,0,0,0,0,0,0,0,0,0,0,0,0,0,0,0,0,0,0,0,0,0,0,0,0,0,0,0,0,0,0,0,0,0,0,0,0,0,0,0,0,0,0,0,0,0,0,0,0,0,0,1.8719,1.8719,0,1.8765,1.8765,1.8766,1.8737,1.8736,1.8735,1.8733,1.879,1.8793,1.8795,0,0,0,0,0,0,0,0,0,0,0,0,0,1.8616,1.8618,1.8719,1.872,1.872,1.8765,1.8765,1.8766,1.8738,1.8736,1.8734,1.8733,1.8789,1.8792,1.8796,0,0,0,0,0,0,0,0,0,0,0,0,0,1.8661,1.8619,1.8719,1.8711,1.8711,1.8764,1.8765,1.8766,1.8738,1.8736,1.8734,1.8732,1.8788,1.8792,1.8796,1.8863,0,0,1.8809,1.8811,0,0,0,0,0,0,0,0,1.8659,1.8665,1.8712,1.8712,1.8711,1.8743,1.875,1.8799,1.8738,1.8728,1.8733,1.8731,1.8777,1.8782,1.8795,1.8865,1.8868,1.8809,1.8812,1.8813,1.8815,0,0,0,0,0,0,0,1.8656,1.8663,1.8737,1.8712,1.8712,1.8708,1.8712,1.8759,1.8764,1.8729,1.8727,1.8732,1.8776,1.8791,1.8796,1.8869,1.8809,1.8813,1.8815,1.8817,1.8998,1.9,0,0,0,0,0,0,1.8652,1.8661,1.8736,1.8739,1.8679,1.8712,1.8716,1.8735,1.8763,1.8765,1.8734,1.873,1.8785,1.8791,1.8798,1.8879,1.8813,1.8817,1.882,1.8996,1.8998,1.9001,0,0,0,0,0,0,1.865,1.8659,1.8734,1.8699,1.8708,1.8716,1.8737,1.8737,1.8752,1.8766,1.8768,1.8747,1.8783,1.8792,1.8846,1.8881,1.8819,1.8823,1.8993,1.8996,1.9,1.9041,0,0,0,0,0,0,1.8647,1.8658,1.8682,1.87,1.871,1.8779,1.8739,1.8739,1.8758,1.8754,1.878,1.8782,1.8783,1.884,1.8851,1.8885,1.8826,1.899,1.8994,1.8999,1.9037,1.9046,1.9053,0,0,0,0,0,1.8643,1.8694,1.8683,1.8692,1.8739,1.8781,1.8788,1.8784,1.8761,1.8786,1.8795,1.8781,1.8874,1.8846,1.8857,1.8894,1.8988,1.8993,1.8998,1.9033,1.9044,1.9053,0,0,0,0,0,0,1.8683,1.8696,1.8684,1.8741,1.876,1.8776,1.8808,1.8795,1.8824,1.882,1.8817,1.8823,1.888,1.8892,1.886,1.8961,1.8928,1.8936,1.8951,1.8961,1.8969,1.8966,1.883,0,0,0,0,0,1.8697,1.8727,1.8738,1.8788,1.8797,1.8801,1.8819,1.8814,1.8835,1.8844,1.8858,1.8881,1.8915,1.8939,1.8971,1.9038,1.9044,1.9069,1.9077,1.9083,1.9091,1.9129,1.914,1.9018,1.9018,1.9018,0,0,1.873,1.874,1.876,1.8796,1.881,1.8844,1.8808,1.8846,1.8872,1.8851,1.8902,1.8913,1.8939,1.9,1.9028,1.9012,1.9126,1.909,1.9095,1.9099,1.9135,1.9147,1.9157,1.9021,1.9021,1.902,0,0,1.8806,1.8815,1.8858,1.8872,1.8892,1.8894,1.8904,1.8922,1.8928,1.8978,1.8964,1.8996,1.9055,1.9075,1.9093,1.9175,1.9164,1.9186,1.9229,1.9266,1.9276,1.9284,1.9316,1.9327,1.9193,1.9193,1.9193,0,1.8844,1.8891,1.8882,1.892,1.8938,1.8916,1.8961,1.8976,1.9008,1.9022,1.9002,1.9076,1.9092,1.9158,1.9178,1.9192,1.9206,1.9184,1.9274,1.9283,1.9291,1.9321,1.9333,1.9195,1.9195,1.9195,1.9194,0,1.8938,1.8972,1.9004,1.9032,1.9052,1.9094,1.9094,1.9116,1.9109,1.9114,1.9168,1.9185,1.9222,1.9237,1.9232,1.9303,1.9292,1.9274,1.9241,1.9305,1.9334,1.9345,1.9199,1.9198,1.9197,1.9197,0,0,1.9043,1.9063,1.9075,1.9088,1.9108,1.9135,1.9177,1.9209,1.9229,1.9251,1.9288,1.9338,1.9321,1.9341,1.9338,1.937,1.9436,1.9348,1.9348,1.9365,1.9517,1.9533,1.9546,1.9428,1.943,1.9431,1.9516,0,1.9122,1.919,1.9183,1.925,1.9282,1.9261,1.9298,1.9316,1.9321,1.9352,1.9359,1.9395,1.9368,1.938,1.9411,1.9421,1.9467,1.9415,1.9465,1.9467,1.9461,1.956,1.9577,1.9655,1.9527,1.9528,1.953,0,1.9223,1.9245,1.9315,1.933,1.9343,1.9375,1.9405,1.9433,1.9454,1.9456,1.9477,1.9468,1.9513,1.9477,1.9541,1.9506,1.9526,1.9534,1.9537,1.9544,1.9504,1.9572,1.968,1.9693,1.9547,1.9545,1.9544,0,1.9295,1.9342,1.939,1.9401,1.942,1.9443,1.9453,1.9471,1.9491,1.9517,1.9531,1.9563,1.9582,1.9608,1.961,1.9583,1.9674,1.9638,1.968,1.968,1.9703,1.9702,1.9818,1.9711,1.9711,1.9711,1.9711,0,1.9385,1.9429,1.9422,1.9452,1.9501,1.9493,1.9543,1.955,1.9566,1.9599,1.9584,1.9616,1.9615,1.9648,1.965,1.9704,1.9712,1.9717,1.9717,1.9719,1.9719,1.9735,1.973,1.9714,1.9714,1.9713,1.9712,0,1.9475,1.9472,1.9523,1.9535,1.9539,1.9575,1.9587,1.9617,1.9619,1.9662,1.9671,1.9677,1.9716,1.9719,1.9764,1.9765,1.9831,1.9824,1.9823,1.9823,1.9865,1.9862,1.9997,2.0015,1.9895,1.9896,1.9897,0,1.9533,1.9566,1.9581,1.96,1.961,1.9642,1.9661,1.9654,1.9676,1.9701,1.9729,1.9764,1.9793,1.9856,1.9867,1.9902,1.9898,1.9942,1.9903,1.9904,1.9901,1.99,1.9904,1.9951,1.9952,1.9954,1.9954,0,1.9639,1.9635,1.9662,1.9688,1.9711,1.9732,1.9752,1.9769,1.9765,1.9791,1.9827,1.9849,1.9894,1.9931,1.9965,1.9978,1.9968,1.9966,1.9978,1.9982,1.9981,1.9984,1.9846,1.9964,1.9963,1.9962,1.9962,1.9961,1.9717,1.9745,1.9759,1.979,1.9803,1.9822,1.985,1.9855,1.9885,1.9918,1.9913,1.9955,1.9976,2.002,2.0036,2.007,2.0056,2.0073,2.0077,2.0082,2.0087,1.9972,2.0077,2.0076,2.0076,2.0076,2.0076,0,1.9823,1.9831,1.9858,1.9885,1.9909,1.9892,1.9913,1.9935,1.9971,1.999,2.0017,2.0061,2.0096,2.0109,2.0144,2.017,2.0166,2.018,2.0179,2.0183,2.0097,2.0084,2.0183,2.0183,2.0183,2.0183,2.0183,2.0183,1.9882,1.9929,1.9927,1.9982,1.999,2.0028,2.0042,2.006,2.0074,2.0122,2.015,2.0157,2.0174,2.021,2.0243,2.0246,2.0261,2.0278,2.0279,2.02,2.0189,2.0179,2.0167,2.028,2.0281,2.0362,2.0363,2.0363]},{"header":{"parameterUnit":"m.s-1","parameterCategory":1,"la1":30.2991,"la2":30.254,"lo1":-89.0895,"lo2":-89.0444,"dy":0.0017,"dx":0.0017,"nx":28,"ny":28,"refTime":"2025-05-30T09:00:00:Z","depth":0,"parameterNumber":3,"parameterNumberName":"V-component_of_WINDS"},"data":[0,0,0,0,0,0,0,0,0,0,0,0,0,0,0,0,0,0,0,0,0,0,0,0,0,0,0,0,0,0,0,0,0,0,0,0,0,0,0,0,0,0,0,0,0,0,0,0,0,0,0,0,0,0,0,0,0,0,2.2584,2.2585,0,2.2614,2.2614,2.2614,2.2566,2.2565,2.2563,2.2561,2.2591,2.2593,2.2596,0,0,0,0,0,0,0,0,0,0,0,0,0,2.2485,2.2487,2.2584,2.2585,2.2585,2.2614,2.2614,2.2615,2.2567,2.2565,2.2563,2.2561,2.259,2.2593,2.2596,0,0,0,0,0,0,0,0,0,0,0,0,0,2.2523,2.2488,2.2584,2.2565,2.2563,2.2614,2.2614,2.2615,2.2567,2.2564,2.2562,2.256,2.2589,2.2593,2.2596,2.2667,0,0,2.2607,2.2608,0,0,0,0,0,0,0,0,2.2521,2.2526,2.2567,2.2566,2.2565,2.2584,2.259,2.2632,2.2568,2.2566,2.2561,2.2558,2.2591,2.2594,2.2605,2.2669,2.267,2.2607,2.2609,2.2611,2.2612,0,0,0,0,0,0,0,2.2518,2.2525,2.2596,2.2568,2.2566,2.2554,2.2556,2.2598,2.2592,2.2566,2.2562,2.2566,2.2589,2.2602,2.2605,2.267,2.2607,2.261,2.2612,2.2614,2.279,2.2792,0,0,0,0,0,0,2.2518,2.2523,2.2595,2.2597,2.2536,2.2558,2.256,2.258,2.2591,2.259,2.2568,2.2564,2.2597,2.2601,2.2606,2.2686,2.2611,2.2614,2.2616,2.2787,2.279,2.2793,0,0,0,0,0,0,2.2516,2.2525,2.2594,2.2559,2.2567,2.2562,2.2584,2.2582,2.2594,2.2593,2.2592,2.2582,2.2595,2.2601,2.2651,2.2687,2.2616,2.2619,2.2784,2.2788,2.2792,2.285,0,0,0,0,0,0,2.2513,2.2524,2.2552,2.256,2.2569,2.264,2.2587,2.2584,2.26,2.2595,2.2605,2.2605,2.2594,2.2646,2.2655,2.269,2.2621,2.2781,2.2786,2.2791,2.2845,2.2856,2.2865,0,0,0,0,0,2.251,2.2568,2.2554,2.2563,2.2603,2.2642,2.2647,2.2633,2.2603,2.263,2.2629,2.2604,2.2683,2.2652,2.2661,2.2698,2.2779,2.2785,2.279,2.2841,2.2854,2.2865,0,0,0,0,0,0,2.2565,2.2569,2.2553,2.2615,2.2628,2.2634,2.2667,2.2647,2.2669,2.2663,2.2645,2.2648,2.2701,2.2705,2.2671,2.2766,2.2725,2.2733,2.2761,2.2773,2.2783,2.2779,2.2624,0,0,0,0,0,2.2584,2.2616,2.2617,2.2672,2.268,2.2672,2.2689,2.2677,2.269,2.2695,2.2698,2.2711,2.2738,2.2756,2.2781,2.2846,2.2846,2.2876,2.2886,2.2894,2.29,2.2932,2.2944,2.2812,2.2812,2.2812,0,0,2.2624,2.263,2.2651,2.2683,2.2692,2.2724,2.2677,2.2714,2.2736,2.27,2.2747,2.275,2.2763,2.282,2.2846,2.2825,2.2937,2.2902,2.2908,2.291,2.2939,2.2951,2.2962,2.2816,2.2816,2.2815,0,0,2.2713,2.2722,2.2767,2.2776,2.279,2.2784,2.2795,2.2803,2.2803,2.285,2.2823,2.285,2.2898,2.2907,2.2918,2.3009,2.2986,2.3018,2.3068,2.3099,2.3109,2.3118,2.3147,2.3158,2.3025,2.3025,2.3025,0,2.2761,2.2808,2.2793,2.283,2.2843,2.2812,2.2856,2.2866,2.2888,2.2897,2.2875,2.2932,2.2939,2.2996,2.3018,2.303,2.3039,2.3015,2.3109,2.3118,2.3126,2.3153,2.3165,2.3028,2.3028,2.3028,2.3027,0,2.2864,2.2897,2.2932,2.2952,2.297,2.3011,2.3,2.302,2.3007,2.3003,2.305,2.3057,2.3082,2.3095,2.3083,2.315,2.3136,2.3112,2.307,2.3142,2.3167,2.3178,2.3033,2.3032,2.3031,2.303,0,0,2.2987,2.2997,2.301,2.3017,2.3029,2.3054,2.3093,2.3116,2.3132,2.3148,2.3178,2.3219,2.3195,2.3208,2.3197,2.3224,2.3291,2.3196,2.3196,2.321,2.3361,2.3377,2.339,2.3277,2.3279,2.3281,2.3359,0,2.3072,2.3138,2.3125,2.3189,2.3217,2.3187,2.322,2.3231,2.3229,2.3252,2.325,2.3277,2.3247,2.3253,2.3279,2.3277,2.3321,2.3272,2.3302,2.3304,2.3297,2.3404,2.3421,2.3495,2.3369,2.3371,2.3372,0,2.318,2.3198,2.3265,2.327,2.3281,2.3311,2.333,2.3354,2.3364,2.3361,2.3374,2.3357,2.3394,2.3354,2.3403,2.337,2.3382,2.3383,2.3385,2.3385,2.334,2.3403,2.3519,2.3528,2.3388,2.3387,2.3386,0,2.3258,2.33,2.3344,2.3352,2.336,2.3381,2.3385,2.3394,2.3408,2.3425,2.3433,2.3455,2.3466,2.3483,2.3471,2.3444,2.3521,2.3481,2.3517,2.3517,2.3532,2.353,2.3647,2.3545,2.3545,2.3545,2.3545,0,2.3353,2.3394,2.3379,2.3406,2.345,2.3434,2.3479,2.3479,2.3487,2.3512,2.3489,2.3514,2.3498,2.3521,2.3513,2.3553,2.3559,2.3556,2.3552,2.3556,2.3556,2.3561,2.3554,2.3548,2.3547,2.3547,2.3546,0,2.3446,2.3439,2.3484,2.3487,2.3489,2.3521,2.3524,2.3548,2.3544,2.3577,2.3583,2.3577,2.3603,2.3593,2.3621,2.3615,2.3665,2.3657,2.3661,2.3658,2.3693,2.3688,2.3814,2.3829,2.3721,2.3722,2.3723,0,2.3505,2.3536,2.3542,2.3557,2.3562,2.3588,2.3602,2.3588,2.3603,2.3616,2.3638,2.3662,2.3679,2.3722,2.3719,2.3739,2.3729,2.3772,2.3732,2.3734,2.3726,2.3723,2.3724,2.3779,2.378,2.3781,2.3782,0,2.361,2.3604,2.3625,2.3643,2.366,2.3675,2.3687,2.3701,2.3687,2.3706,2.3731,2.3745,2.3772,2.3795,2.3813,2.3816,2.3796,2.3795,2.3804,2.3806,2.3806,2.3803,2.3679,2.3792,2.3791,2.379,2.379,2.3789,2.3685,2.371,2.3717,2.374,2.3748,2.3759,2.3781,2.378,2.3801,2.3821,2.3812,2.3841,2.3849,2.3871,2.3877,2.3898,2.3881,2.3895,2.3898,2.3901,2.3903,2.3805,2.3902,2.3902,2.3902,2.3901,2.3901,0,2.3785,2.3788,2.381,2.3827,2.3845,2.3825,2.3837,2.3853,2.3878,2.3888,2.3905,2.3933,2.3955,2.3954,2.3973,2.399,2.3982,2.3996,2.3993,2.3993,2.3919,2.3908,2.4002,2.4002,2.4002,2.4002,2.4002,2.4002,2.3839,2.3878,2.3873,2.3915,2.3917,2.3945,2.3953,2.3963,2.397,2.4002,2.4019,2.4018,2.4023,2.4042,2.4061,2.406,2.4066,2.4083,2.4079,2.4009,2.3999,2.3989,2.3978,2.4086,2.4086,2.415,2.4151,2.4152]}]]